Clines Corners, NM

3:20 PM MST on February 10, 2016 (GMT -0700)
Clines Corner

Weather History for KCQC - March, 2013

Change the Weather History Date:

Monday, March 25, 2013

  Actual Average (KSAF) Record (KSAF)
Temperature  
Mean Temperature 28 °F -  
Max Temperature 48 °F 0 °F 81 °F (2012)
Min Temperature 10 °F - 17 °F (2013)
Degree Days  
Heating Degree Days 37    
Moisture  
Dew Point 5 °F    
Average Humidity 46    
Maximum Humidity 88    
Minimum Humidity 14    
Precipitation  
Precipitation 0.00 in - - ()
Sea Level Pressure  
Sea Level Pressure 30.18 in    
Wind  
Wind Speed 13 mph (SE)    
Max Wind Speed 20 mph    
Max Gust Speed 26 mph    
Visibility 10 miles    
Events      
Averages and records for this station are not official NWS values.
T = Trace of Precipitation, MM = Missing Value Source: NWS Daily Summary

Daily Weather History Graph

Daily Weather History Graph

Search for Another Location

Airport or City:

Trip Planner

Search our weather history database for the weather conditions in past years. The results will help you decide how hot, cold, wet, or windy it might be!

Date:

Astronomy

Mar. 25, 2013 Rise Set
Actual Time 6:58 AM MDT 7:18 PM MDT
Civil Twilight 6:33 AM MDT 7:43 PM MDT
Nautical Twilight 6:03 AM MDT 8:13 PM MDT
Astronomical Twilight 5:33 AM MDT 8:43 PM MDT
Moon 5:55 PM MDT (3/25) 5:40 AM MDT (3/25)
Length of Visible Light 13h 10m
Length of Day
12h 19m
Waxing Gibbous, 97% of the Moon is Illuminated
Mar 25
Waxing Gibbous
Mar 27
Full
Apr 2
Last Quarter
Apr 10
New
Apr 18
First Quarter

Hourly Weather History & Observations

Time (MDT) Temp. Windchill Dew Point Humidity Pressure Visibility Wind Dir Wind Speed Gust Speed Precip Events Conditions
12:53 AM 19.9 °F 4.3 °F 6.1 °F 55% 30.12 in 10.0 mi East 19.6 mph 26.5 mph N/A   Clear
1:53 AM 18.0 °F 2.6 °F 8.1 °F 65% 30.13 in 10.0 mi East 17.3 mph - N/A   Clear
2:53 AM 16.0 °F 1.7 °F 9.0 °F 74% 30.14 in 10.0 mi East 13.8 mph - N/A   Clear
3:53 AM 14.0 °F 1.2 °F 10.0 °F 84% 30.12 in 10.0 mi East 10.4 mph - N/A   Clear
4:53 AM 12.0 °F 1.5 °F 9.0 °F 88% 30.15 in 10.0 mi ESE 6.9 mph - N/A   Clear
5:53 AM 10.9 °F 0.2 °F 8.1 °F 88% 30.17 in 10.0 mi ESE 6.9 mph - N/A   Clear
6:53 AM 10.9 °F -0.8 °F 8.1 °F 88% 30.19 in 9.0 mi East 8.1 mph - N/A   Clear
7:53 AM 15.1 °F 4.2 °F 10.9 °F 84% 30.22 in 10.0 mi ESE 8.1 mph - N/A   Clear
8:53 AM 19.9 °F 6.7 °F 8.1 °F 60% 30.22 in 10.0 mi SSE 13.8 mph - N/A   Clear
9:53 AM 24.1 °F 14.4 °F 7.0 °F 48% 30.22 in 10.0 mi SSE 9.2 mph - N/A   Clear
10:53 AM 28.9 °F 20.4 °F 6.1 °F 38% 30.23 in 10.0 mi South 9.2 mph 16.1 mph N/A   Clear
11:53 AM 33.1 °F 24.9 °F 6.1 °F 32% 30.22 in 10.0 mi SSE 10.4 mph - N/A   Clear
12:53 PM 37.9 °F 29.6 °F -0.0 °F 20% 30.17 in 10.0 mi WNW 13.8 mph 21.9 mph N/A   Clear
1:53 PM 39.9 °F 34.5 °F -0.9 °F 18% 30.16 in 10.0 mi WNW 8.1 mph 19.6 mph N/A   Clear
2:53 PM 43.0 °F 36.4 °F -0.9 °F 16% 30.12 in 10.0 mi West 12.7 mph 23.0 mph N/A   Clear
3:53 PM 46.9 °F - -0.9 °F 14% 30.10 in 10.0 mi WNW 17.3 mph 26.5 mph N/A   Clear
4:53 PM 46.0 °F 40.2 °F 1.0 °F 16% 30.13 in 10.0 mi West 12.7 mph - N/A   Clear
5:53 PM 46.0 °F 41.9 °F 1.9 °F 16% 30.14 in 10.0 mi WNW 8.1 mph - N/A   Clear
6:53 PM 42.1 °F 38.4 °F 3.0 °F 20% 30.17 in 10.0 mi SSW 5.8 mph - N/A   Partly Cloudy
7:53 PM 37.9 °F 35.5 °F 3.0 °F 23% 30.19 in 10.0 mi West 3.5 mph - N/A   Mostly Cloudy
8:53 PM 32.0 °F 22.5 °F 3.9 °F 31% 30.25 in 10.0 mi East 12.7 mph - N/A   Mostly Cloudy
9:53 PM 28.9 °F 18.6 °F 5.0 °F 36% 30.27 in 10.0 mi East 12.7 mph - N/A   Mostly Cloudy
10:53 PM 26.1 °F 14.0 °F 3.9 °F 39% 30.27 in 10.0 mi ESE 15.0 mph - N/A   Clear
11:53 PM 26.1 °F 16.2 °F 3.9 °F 39% 30.25 in 10.0 mi East 10.4 mph - N/A   Clear